Date,TemperatureHighF,TemperatureAvgF,TemperatureLowF,DewpointHighF,DewpointAvgF,DewpointLowF,HumidityHigh,HumidityAvg,HumidityLow,PressureMaxIn,PressureMinIn,WindSpeedMaxMPH,WindSpeedAvgMPH,GustSpeedMaxMPH,PrecipitationSumIn
2013-1-1,57,39,31,51,38,31,98,95,68,30.31,30.17,4,1,0,0.01
2013-1-2,57,37,27,48,35,27,98,93,63,30.19,30.02,4,1,0,0.01
2013-1-3,55,41,29,54,40,28,98,97,89,30.24,30.01,7,1,0,0.19
2013-1-4,56,47,41,55,47,40,98,98,98,30.26,30.07,3,0,0,0.01
2013-1-5,48,44,40,48,43,40,98,98,98,30.13,30.04,2,0,0,0.04
2013-1-6,54,46,42,53,45,41,98,98,93,30.18,30.08,4,0,0,0.06
2013-1-7,52,49,45,52,48,45,98,98,98,30.21,30.07,4,0,0,0.23
2013-1-8,62,51,45,62,50,44,98,98,98,30.21,29.93,7,2,0,0.04
2013-1-9,51,44,35,50,44,35,98,97,80,29.98,29.78,14,3,0,1.15
2013-1-10,46,37,34,45,37,33,98,98,98,30.16,29.97,8,1,0,1.16
2013-1-11,50,37,33,47,37,32,98,98,88,30.25,30.11,3,1,0,0.28
2013-1-12,47,35,27,44,34,27,98,97,82,30.31,30.21,3,0,0,0.00
2013-1-13,47,31,25,42,30,24,98,94,63,30.38,30.29,4,1,0,0.01
2013-1-14,52,33,23,42,30,22,98,93,69,30.48,30.38,5,1,0,0.01
2013-1-15,55,35,24,44,33,24,98,92,67,30.52,30.44,6,1,0,0.01
2013-1-16,63,36,26,50,34,25,98,94,61,30.47,30.28,3,0,0,0.01
2013-1-17,68,40,29,54,38,28,98,92,48,30.29,30.11,3,0,0,0.01
2013-1-18,61,39,27,52,37,26,98,94,73,30.21,30.11,5,0,0,0.01
2013-1-19,57,38,29,51,36,28,98,95,70,30.26,30.13,4,0,0,0.01
2013-1-20,62,39,26,49,36,26,98,90,53,30.23,30.08,4,0,0,0.00
2013-1-21,66,40,27,46,36,26,98,88,43,30.14,30.01,4,1,0,0.01
2013-1-22,60,41,29,49,39,29,98,93,67,30.02,29.82,4,0,0,0.01
2013-1-23,46,43,41,46,43,40,98,98,98,30.11,29.77,5,0,0,1.32
2013-1-24,64,46,34,58,46,34,98,97,83,30.12,30.02,5,1,0,0.09
2013-1-25,59,49,46,58,49,46,99,98,98,30.08,29.97,7,1,0,0.58
2013-1-28,48,44,44,45,38,-100,98,89,88,30.32,30.22,6,-41,0,0.32
2013-1-29,50,45,40,47,43,39,98,95,86,30.51,30.31,8,1,0,0.31
2013-1-30,53,43,36,49,41,35,98,94,78,30.52,30.40,4,1,0,0.00
2013-1-31,56,44,34,46,41,33,98,87,69,30.38,30.25,7,1,0,0.00
2013-2-1,65,42,31,52,38,30,98,89,54,30.27,30.06,3,0,0,0.00
2013-2-2,56,42,33,47,40,32,98,92,72,30.28,30.14,5,1,0,0.00
2013-2-3,54,48,41,46,44,39,98,86,69,30.27,30.15,5,1,0,0.00
2013-2-4,52,45,39,46,42,38,98,90,77,30.17,29.95,8,1,0,0.00
2013-2-5,54,48,43,49,44,41,98,87,72,30.08,29.89,10,2,0,0.23
2013-2-6,53,45,39,47,42,38,98,90,67,30.10,29.85,11,2,0,0.61
2013-2-7,41,38,34,40,36,33,98,96,91,30.06,29.93,5,0,0,0.79
2013-2-8,51,40,32,42,36,31,98,88,65,30.23,30.05,7,2,0,0.00
2013-2-9,53,40,32,42,37,30,98,88,61,30.26,30.19,7,1,0,0.00
2013-2-10,51,44,35,43,39,34,98,84,70,30.27,30.21,7,2,0,0.00
2013-2-11,56,46,42,43,39,36,92,77,58,30.37,30.23,7,2,0,0.00
2013-2-12,56,48,44,51,46,43,98,93,82,30.47,30.37,5,1,0,0.04
2013-2-13,58,48,40,49,46,40,98,91,72,30.45,30.39,5,1,0,0.00
2013-2-14,63,48,40,50,44,39,98,88,58,30.47,30.31,7,1,0,0.01
2013-2-15,69,48,34,49,41,33,98,80,41,30.31,30.13,7,1,0,0.00
2013-2-16,53,46,41,47,43,39,98,89,73,30.27,30.20,6,1,0,0.00
2013-2-17,54,41,33,43,36,32,98,85,56,30.25,30.01,8,1,0,0.00
2013-2-18,50,40,32,42,36,30,95,88,66,30.01,29.67,6,1,0,0.08
2013-2-19,49,41,35,42,38,34,96,88,72,29.96,29.57,8,2,0,0.77
2013-2-20,50,41,34,42,38,33,98,90,66,30.10,29.96,7,1,0,0.20
2013-2-21,49,42,37,44,40,37,98,92,78,30.23,30.10,6,0,0,0.08
2013-2-22,51,45,38,46,42,37,98,91,77,30.22,29.98,10,2,0,0.52
2013-2-23,50,41,36,44,38,34,98,89,65,30.41,30.15,7,1,0,0.37
2013-2-24,57,42,32,41,36,31,97,82,46,30.42,30.13,8,1,0,0.00
2013-2-25,51,44,34,44,39,32,95,85,64,30.37,30.11,8,2,0,0.33
2013-2-26,53,40,31,40,35,30,98,83,53,30.37,30.21,6,1,0,0.00
2013-2-27,59,48,38,51,44,36,98,89,63,30.25,30.16,8,1,0,0.15
2013-2-28,57,52,49,54,51,49,98,95,85,30.43,30.18,7,1,0,0.21
2013-3-1,61,52,48,54,50,48,98,91,75,30.44,30.25,6,1,0,0.00
2013-3-2,55,50,46,51,48,44,98,92,78,30.26,30.13,7,1,0,0.01
2013-3-3,58,45,33,44,38,30,98,77,36,30.22,30.07,9,2,0,0.00
2013-3-4,59,41,28,46,36,27,97,83,56,30.08,29.81,7,2,0,0.00
2013-3-5,45,43,38,43,41,37,98,96,91,29.81,29.52,11,1,0,1.64
2013-3-6,50,43,39,46,42,39,98,95,84,29.91,29.48,9,1,0,0.67
2013-3-7,56,42,32,45,38,31,98,86,56,29.98,29.89,7,1,0,0.01
2013-3-8,56,43,32,46,39,31,98,87,63,30.15,29.94,9,2,0,0.00
2013-3-9,65,47,36,47,41,36,98,82,48,30.44,30.16,10,2,0,0.00
2013-3-10,64,46,33,47,39,32,98,82,38,30.44,30.33,6,1,0,0.00
2013-3-11,66,52,45,54,48,44,98,88,62,30.37,30.17,8,2,0,0.00
2013-3-12,61,51,46,53,48,45,98,90,72,30.20,30.13,6,1,0,0.00
2013-3-13,64,50,43,54,47,43,98,88,63,30.18,30.07,7,2,0,0.00
2013-3-14,64,52,45,50,47,44,98,84,54,30.17,30.02,9,2,0,0.00
2013-3-15,64,54,48,54,50,47,98,86,69,30.19,30.13,10,2,0,0.00
2013-3-16,52,49,44,49,47,42,98,93,83,30.19,30.08,10,3,0,0.27
2013-3-17,54,45,37,42,39,35,98,82,54,30.29,30.18,8,2,0,0.01
2013-3-18,63,44,30,44,38,29,98,80,42,30.23,29.99,7,1,0,0.00
2013-3-19,60,50,43,51,46,42,98,88,58,30.00,29.63,14,2,0,0.53
2013-3-20,54,48,40,51,45,39,98,88,67,30.19,29.60,15,5,0,0.44
2013-3-21,50,42,35,43,38,34,98,89,64,30.35,30.20,9,2,0,0.16
2013-3-22,52,41,32,41,36,31,98,83,53,30.36,30.30,9,2,0,0.14
2013-3-23,55,41,30,40,34,28,98,80,46,30.33,30.14,6,2,0,0.00
2013-3-24,58,43,32,41,37,31,98,79,53,30.18,29.98,10,2,0,0.00
2013-3-25,54,44,34,46,41,33,98,88,71,29.99,29.88,7,1,0,0.00
2013-3-26,64,51,44,48,44,42,98,81,50,29.95,29.85,8,2,0,0.00
2013-3-27,64,52,44,54,48,42,98,86,59,29.92,29.80,9,2,0,0.00
2013-3-28,60,52,46,53,48,45,98,89,66,30.05,29.90,8,1,0,0.00
2013-3-29,74,58,49,57,52,47,98,81,50,30.10,29.99,9,2,0,0.02
2013-3-30,79,65,53,59,53,50,92,68,44,29.97,29.86,12,3,0,0.00
2013-3-31,61,55,51,55,52,50,98,91,77,29.99,29.91,4,1,0,0.00
2013-4-1,58,53,50,53,51,49,98,93,82,30.16,29.97,7,2,0,0.04
2013-4-2,68,54,49,56,50,47,98,88,61,30.19,30.07,7,2,0,0.00
2013-4-3,64,53,46,56,50,45,98,89,74,30.12,29.86,7,2,0,0.06
2013-4-4,59,53,51,57,52,50,98,97,87,29.91,29.68,11,2,0,1.44
2013-4-5,57,53,51,54,51,50,98,93,79,29.99,29.85,11,3,0,0.28
2013-4-6,58,53,49,51,50,48,98,88,71,30.03,29.75,10,4,0,0.32
2013-4-7,55,48,41,51,45,40,98,92,75,29.97,29.76,18,6,0,1.45
2013-4-8,56,45,38,48,42,37,98,89,66,30.24,29.97,9,2,0,0.17
2013-4-9,68,51,38,52,44,37,98,78,46,30.29,30.20,8,2,0,0.00
2013-4-10,56,49,41,52,47,40,98,93,83,30.29,30.19,7,2,0,0.08
2013-4-11,59,47,35,47,42,35,98,83,61,30.30,30.09,9,3,0,0.00
2013-4-12,60,47,36,48,43,35,98,87,64,30.10,29.92,9,2,0,0.03
2013-4-13,56,46,35,45,40,33,98,81,56,30.11,29.97,8,2,0,0.20
2013-4-14,54,43,35,45,39,34,98,87,67,30.09,29.89,9,2,0,0.00
2013-4-15,54,44,36,43,40,35,98,85,62,30.15,29.91,8,2,0,0.40
2013-4-16,58,46,36,46,41,35,98,84,60,30.37,30.15,10,2,0,0.01
2013-4-17,61,50,41,48,44,40,95,81,58,30.46,30.35,8,2,0,0.00
2013-4-18,64,52,43,49,46,42,98,79,56,30.44,30.31,9,2,0,0.00
2013-4-19,55,51,48,53,50,46,98,95,90,30.33,30.23,9,2,0,0.21
2013-4-20,62,52,47,52,48,44,98,86,68,30.31,30.21,11,3,0,0.04
2013-4-21,68,54,46,53,47,42,94,79,57,30.25,30.16,6,2,0,0.00
2013-4-22,73,57,44,48,46,41,98,71,33,30.23,30.09,10,3,0,0.00
2013-4-23,73,53,35,46,38,22,98,64,15,30.19,30.04,14,3,0,0.00
2013-4-24,84,57,36,49,39,22,98,63,12,30.11,29.83,7,2,0,0.00
2013-4-25,72,55,38,52,45,38,98,74,36,30.11,29.90,9,2,0,0.00
2013-4-26,79,55,44,59,48,43,98,82,44,30.25,30.10,8,2,0,0.00
2013-4-27,70,54,45,52,46,40,98,78,39,30.28,30.19,10,2,0,0.00
2013-4-28,68,55,47,55,48,44,95,79,60,30.27,30.14,7,2,0,0.00
2013-4-29,60,52,41,52,46,37,98,81,48,30.18,30.11,10,3,0,0.05
2013-4-30,61,47,32,42,37,31,98,72,42,30.33,30.16,10,3,0,0.00
2013-5-1,72,52,32,47,39,31,98,68,26,30.37,30.24,10,2,0,0.00
2013-5-2,82,57,37,52,43,37,98,67,29,30.28,30.12,10,2,0,0.00
2013-5-3,77,56,38,53,46,37,98,74,43,30.23,29.98,9,2,0,0.00
2013-5-4,87,65,39,57,40,31,98,53,14,30.01,29.60,12,3,0,0.00
2013-5-5,87,67,52,52,44,34,91,48,19,29.77,29.53,16,4,0,0.01
2013-5-6,72,58,47,56,51,46,98,80,47,29.90,29.77,9,2,0,0.00
2013-5-7,65,55,51,54,51,49,95,85,69,30.02,29.87,10,3,0,0.00
2013-5-8,69,57,51,55,50,48,94,80,58,30.12,30.01,8,2,0,0.00
2013-5-9,73,57,50,58,51,48,93,82,60,30.15,30.03,7,3,0,0.00
2013-5-10,68,54,50,56,50,48,95,86,66,30.21,30.12,10,2,0,0.00
2013-5-11,82,61,46,62,53,45,98,78,45,30.19,29.97,12,2,0,0.00
2013-5-12,70,60,53,61,56,53,98,86,69,30.11,30.01,9,2,0,0.00
2013-5-13,65,58,48,57,53,47,98,86,64,30.17,30.02,14,3,0,0.00
2013-5-14,68,55,44,52,47,44,98,78,51,30.17,30.06,10,2,0,0.00
2013-5-15,65,54,45,52,48,44,98,83,59,30.10,29.93,7,1,0,0.02
2013-5-16,61,55,51,54,52,50,98,90,71,29.96,29.89,9,2,0,0.19
2013-5-17,62,55,49,54,50,48,98,85,61,30.07,29.94,8,2,0,0.06
2013-5-18,60,54,47,53,50,46,98,90,75,30.27,30.04,11,2,0,0.03
2013-5-19,65,56,45,54,51,44,98,84,65,30.36,30.23,9,3,0,0.15
2013-5-20,72,55,40,56,48,40,98,80,57,30.27,29.93,7,2,0,0.00
2013-5-21,54,49,40,51,46,40,98,90,66,30.06,29.81,14,2,0,0.82
2013-5-22,50,46,40,48,45,40,98,96,90,30.04,29.97,7,1,0,1.47
2013-5-23,61,51,43,53,47,42,98,88,63,30.03,29.96,13,2,0,0.33
2013-5-24,58,52,46,51,48,46,98,86,67,30.06,29.99,9,2,0,0.08
2013-5-25,64,54,43,54,49,42,98,86,63,30.04,29.89,9,2,0,0.22
2013-5-26,63,55,51,54,52,50,98,90,70,30.02,29.90,9,3,0,0.18
2013-5-27,62,55,52,58,54,51,98,95,85,29.92,29.71,11,3,0,0.94
2013-5-28,65,56,51,55,53,51,98,88,64,29.92,29.68,11,2,0,0.20
2013-5-29,59,55,48,55,52,48,98,90,79,30.04,29.66,15,4,0,0.06
2013-5-30,65,55,45,53,49,45,98,82,52,30.20,30.03,7,2,0,0.01
2013-5-31,70,55,41,56,48,40,98,80,56,30.25,30.15,10,2,0,0.00
2013-6-1,77,59,45,59,50,44,98,78,46,30.21,29.98,9,2,0,0.00
2013-6-2,68,58,50,59,54,49,98,87,70,30.02,29.95,10,3,0,0.09
2013-6-3,72,58,46,59,52,45,98,81,58,30.01,29.91,13,3,0,0.00
2013-6-4,76,60,45,60,52,44,98,80,48,29.98,29.88,8,2,0,0.00
2013-6-5,75,61,52,62,56,52,98,85,61,30.04,29.92,7,2,0,0.00
2013-6-6,68,56,53,59,54,52,98,92,69,30.00,29.95,6,2,0,0.00
2013-6-8,77,65,51,58,52,49,93,63,48,29.99,29.93,9,4,0,0.00
2013-6-9,70,58,46,56,50,46,98,78,55,30.00,29.90,14,4,0,0.00
2013-6-10,67,55,42,51,47,41,98,77,54,29.97,29.88,12,4,0,0.00
2013-6-11,68,57,47,52,49,46,98,76,52,30.12,29.97,8,2,0,0.00
2013-6-12,64,54,46,52,49,45,98,83,61,30.18,30.11,12,2,0,0.00
2013-6-13,65,55,44,54,50,44,98,86,62,30.27,30.16,8,2,0,0.06
2013-6-14,73,58,44,56,50,43,98,79,52,30.25,29.90,9,2,0,0.00
2013-6-15,72,58,48,60,53,47,98,86,63,30.00,29.87,7,2,0,0.00
2013-6-16,69,57,47,56,52,46,98,84,63,30.09,29.98,10,2,0,0.00
2013-6-17,72,58,48,58,53,47,98,85,59,30.07,29.96,11,3,0,0.00
2013-6-18,65,56,45,55,51,44,98,85,65,29.97,29.93,11,2,0,0.10
2013-6-19,66,58,51,56,53,51,98,84,62,30.09,29.91,10,3,0,0.56
2013-6-20,70,59,50,55,52,49,98,81,56,30.09,30.01,8,2,0,0.00
2013-6-21,75,60,47,57,52,46,98,79,53,30.11,30.02,8,2,0,0.00
2013-6-22,76,61,48,60,54,48,98,81,43,30.04,29.79,11,2,0,0.00
2013-6-23,72,62,56,66,60,54,98,93,71,29.80,29.55,8,2,0,0.17
2013-6-24,66,59,54,59,56,53,98,91,69,29.68,29.60,5,1,0,0.10
2013-6-25,68,62,57,61,58,56,98,88,71,29.79,29.62,11,2,0,0.46
2013-6-26,74,66,59,64,61,58,98,85,63,29.92,29.78,5,1,0,0.26
2013-6-27,75,65,57,66,61,56,98,87,71,30.08,29.92,10,2,0,0.00
2013-6-28,86,69,55,66,60,54,98,77,45,30.07,29.96,10,2,0,0.00
2013-6-29,92,70,54,68,60,54,98,75,40,30.06,29.86,11,2,0,0.00
2013-6-30,83,68,58,66,61,57,98,81,53,29.92,29.82,8,2,0,0.00
2013-7-1,80,68,58,66,62,58,98,83,62,29.96,29.86,9,3,0,0.00
2013-7-2,77,66,59,65,61,58,98,84,65,30.01,29.95,10,3,0,0.00
2013-7-3,79,66,54,63,58,52,95,77,50,30.04,29.97,10,3,0,0.00
2013-7-4,74,61,49,59,54,48,98,80,57,30.08,29.95,10,3,0,0.00
2013-7-5,74,62,50,57,54,50,98,76,56,30.00,29.85,14,4,0,0.00
2013-7-6,74,59,47,59,54,46,98,83,56,29.90,29.78,11,3,0,0.00
2013-7-7,74,63,56,61,56,53,91,79,59,29.91,29.82,9,4,0,0.00
2013-7-8,76,63,52,61,56,51,98,78,57,29.97,29.89,9,2,0,0.00
2013-7-9,77,62,52,62,56,52,98,83,58,30.02,29.94,7,2,0,0.00
2013-7-10,74,61,51,60,54,49,95,79,59,30.02,29.90,11,3,0,0.00
2013-7-11,74,58,45,56,50,44,98,78,51,30.00,29.90,10,2,0,0.00
2013-7-12,72,59,48,53,50,47,98,76,46,30.03,29.95,12,3,0,0.00
2013-7-13,77,60,45,58,51,44,98,76,46,30.05,29.92,10,2,0,0.00
2013-7-14,76,61,49,60,53,48,98,77,50,30.01,29.88,10,2,0,0.00
2013-7-15,75,60,48,59,53,48,98,79,55,29.94,29.72,7,2,0,0.00
2013-7-16,64,58,50,58,54,50,98,89,80,29.99,29.75,7,2,0,0.00
2013-7-17,74,62,53,59,55,51,93,78,57,30.12,29.99,7,2,0,0.00
2013-7-18,76,60,44,61,53,44,98,79,57,30.14,30.03,10,3,0,0.00
2013-7-19,73,60,51,60,54,50,98,82,61,30.09,29.98,13,3,0,0.00
2013-7-20,74,61,55,60,55,53,93,83,61,30.02,29.87,8,3,0,0.00
2013-7-21,76,63,54,60,56,53,98,81,54,29.91,29.78,9,3,0,0.00
2013-7-22,78,63,54,63,56,52,98,81,56,29.93,29.84,9,2,0,0.00
2013-7-23,77,59,51,60,54,50,98,85,56,30.00,29.88,11,3,0,0.00
2013-7-24,72,58,51,59,53,50,98,83,60,30.00,29.91,10,3,0,0.00
2013-7-25,79,62,50,61,54,49,98,77,49,30.00,29.89,7,2,0,0.00
2013-7-26,77,60,49,59,52,48,98,78,51,30.09,29.97,10,2,0,0.00
2013-7-27,76,60,48,59,53,47,98,79,53,30.11,29.94,11,3,0,0.00
2013-7-28,74,60,47,58,53,46,98,78,56,30.01,29.86,9,3,0,0.00
2013-7-29,73,58,48,58,53,48,98,83,57,30.03,29.90,7,2,0,0.00
2013-7-30,73,62,52,58,55,52,98,80,58,30.10,30.03,8,2,0,0.00
2013-7-31,65,60,57,58,57,54,98,88,78,30.08,30.03,6,1,0,0.00
2013-8-1,70,61,55,59,57,54,98,88,67,30.09,30.03,7,2,0,0.04
2013-8-2,77,64,53,60,57,52,98,79,56,30.08,29.97,10,2,0,0.00
2013-8-3,79,63,52,62,56,52,98,82,57,30.02,29.88,9,2,0,0.00
2013-8-4,76,63,56,63,57,55,98,83,62,29.95,29.87,8,3,0,0.00
2013-8-5,76,61,54,61,56,51,98,85,61,29.96,29.85,6,2,0,0.00
2013-8-6,72,59,52,59,54,51,98,84,63,29.96,29.89,9,2,0,0.00
2013-8-7,64,57,54,57,54,52,98,90,79,30.05,29.95,6,2,0,0.00
2013-8-8,75,62,53,63,57,53,98,86,64,30.04,29.86,7,2,0,0.02
2013-8-9,78,62,55,63,58,54,98,87,57,29.93,29.78,9,2,0,0.31
2013-8-10,67,61,58,61,58,57,98,92,79,30.01,29.90,4,1,0,0.03
2013-8-11,74,62,53,62,57,53,98,87,64,30.02,29.92,5,1,0,0.00
2013-8-12,76,61,49,60,54,48,98,81,56,30.02,29.95,7,2,0,0.00
2013-8-13,83,62,48,62,54,47,98,79,48,30.03,29.88,8,2,0,0.00
2013-8-14,82,65,50,65,57,49,98,80,40,29.94,29.83,9,2,0,0.00
2013-8-15,77,68,64,67,64,62,94,87,71,29.90,29.84,9,1,0,0.00
2013-8-16,80,68,57,65,61,56,98,80,55,29.99,29.87,8,2,0,0.00
2013-8-17,79,64,52,65,59,52,98,84,62,30.04,29.96,7,2,0,0.00
2013-8-18,82,65,51,64,58,50,98,81,53,30.05,29.93,9,2,0,0.00
2013-8-19,83,66,56,65,59,55,98,81,47,30.03,29.93,11,2,0,0.00
2013-8-20,81,64,50,61,54,50,98,74,41,30.01,29.82,12,2,0,0.00
2013-8-21,82,62,47,61,54,47,98,78,43,29.90,29.76,7,2,0,0.00
2013-8-22,65,60,56,59,57,54,96,89,80,29.90,29.84,9,2,0,0.00
2013-8-23,74,62,54,61,58,54,98,87,59,29.90,29.82,6,1,0,0.01
2013-8-24,76,62,52,62,56,52,98,83,56,29.86,29.76,9,2,0,0.00
2013-8-25,67,58,52,60,56,52,98,93,77,29.88,29.82,5,1,0,0.09
2013-8-26,78,64,51,60,55,49,98,76,39,29.89,29.84,16,3,0,0.00
2013-8-27,80,66,58,62,60,57,98,81,54,29.88,29.74,11,2,0,0.00
2013-8-28,77,66,57,64,61,57,98,85,65,29.81,29.74,7,1,0,0.00
2013-8-29,80,68,61,70,64,60,98,89,62,30.00,29.77,16,2,0,0.44
2013-8-30,83,69,57,68,64,57,98,84,53,30.04,29.92,7,2,0,0.00
2013-8-31,71,60,54,62,58,53,98,91,72,29.95,29.81,9,2,0,0.00
2013-9-1,83,67,55,64,59,55,98,78,44,29.87,29.70,10,2,0,0.00
2013-9-2,79,68,56,64,61,56,98,80,46,29.85,29.76,12,3,0,0.00
2013-9-3,78,64,51,62,57,51,98,82,54,29.94,29.85,11,2,0,0.00
2013-9-4,78,64,55,62,58,54,98,85,57,30.00,29.92,12,2,0,0.00
2013-9-5,68,62,60,64,60,59,98,96,81,30.07,29.92,4,0,0,0.55
2013-9-6,78,65,56,64,60,56,98,84,60,30.12,29.99,10,2,0,0.00
2013-9-7,81,63,52,65,58,52,98,85,58,30.00,29.82,9,2,0,0.00
2013-9-8,83,66,57,67,61,57,98,84,58,29.94,29.80,8,2,0,0.00
2013-9-9,82,66,56,67,60,55,98,84,55,29.90,29.75,9,2,0,0.00
2013-9-10,87,66,55,69,59,54,98,82,53,29.80,29.60,10,2,0,0.00
2013-9-11,76,63,56,64,59,55,98,87,65,29.91,29.77,9,2,0,0.00
2013-9-12,68,63,60,61,60,58,98,89,79,29.93,29.88,5,1,0,0.00
2013-9-13,73,63,58,63,60,57,98,89,72,29.93,29.76,9,2,0,0.00
2013-9-14,66,61,58,62,59,58,98,94,84,29.79,29.70,6,1,0,0.00
2013-9-15,68,62,58,61,58,56,98,89,73,29.86,29.71,9,2,0,0.02
2013-9-16,76,64,57,61,58,56,98,83,57,29.92,29.79,6,1,0,0.00
2013-9-17,71,61,52,60,57,52,98,88,61,29.99,29.78,10,2,0,0.07
2013-9-18,76,61,51,59,55,51,98,84,53,30.04,29.88,8,2,0,0.01
2013-9-19,74,59,46,59,52,45,98,82,53,29.90,29.73,9,1,0,0.00
2013-9-20,64,56,47,63,55,46,98,96,79,29.74,29.61,8,1,0,0.33
2013-9-21,68,59,51,62,56,51,98,90,72,29.78,29.61,10,2,0,1.63
2013-9-22,65,58,52,61,56,51,98,93,79,29.87,29.69,9,1,0,0.10
2013-9-23,69,59,52,61,56,52,98,90,65,29.97,29.86,8,1,0,0.01
2013-9-24,65,57,50,60,54,49,98,90,63,29.94,29.86,12,2,0,0.83
2013-9-25,62,52,44,54,49,43,98,90,64,30.01,29.86,8,2,0,1.01
2013-9-26,69,52,43,56,48,43,98,87,56,30.12,29.99,9,1,0,0.00
2013-9-27,64,53,43,58,51,42,98,95,76,30.14,29.94,5,0,0,0.34
2013-9-28,65,59,53,61,58,52,98,96,83,29.94,29.58,17,4,0,3.64
2013-9-29,62,57,53,61,56,53,98,98,93,29.72,29.50,16,4,0,4.17
2013-9-30,64,55,47,56,52,47,98,89,66,29.99,29.69,10,3,0,0.08
2013-10-1,65,53,43,56,50,42,98,90,64,30.12,29.95,7,1,0,0.17
2013-10-2,62,49,38,53,46,38,98,91,62,30.13,30.05,9,1,0,0.24
2013-10-3,66,52,42,53,47,41,98,85,54,30.32,30.13,8,1,0,0.01
2013-10-4,76,53,38,56,46,38,98,81,30,30.31,30.16,8,1,0,0.00
2013-10-5,78,55,38,55,45,37,98,76,28,30.18,30.01,5,1,0,0.00
2013-10-6,78,56,40,55,46,30,98,78,17,30.05,29.91,11,2,0,0.00
2013-10-7,65,55,47,58,51,47,98,88,59,30.11,29.96,7,2,0,0.31
2013-10-8,57,50,45,55,50,44,98,96,89,30.12,29.93,5,0,0,0.14
2013-10-9,64,50,40,51,46,39,98,87,54,29.97,29.87,7,1,0,0.02
2013-10-10,68,52,41,54,48,41,98,87,47,30.00,29.87,7,1,0,0.00
2013-10-11,63,54,48,53,49,47,98,86,60,30.06,30.00,6,1,0,0.00
2013-10-12,64,50,44,55,49,44,98,94,74,30.03,29.95,6,1,0,0.34
2013-10-13,66,50,40,54,47,40,98,89,62,30.16,30.04,7,1,0,0.00
2013-10-14,71,52,39,54,46,38,98,84,49,30.21,30.06,7,1,0,0.00
2013-10-15,74,52,36,56,45,36,98,82,37,30.14,29.95,7,1,0,0.00
2013-10-16,70,51,38,56,47,37,98,87,60,30.06,29.97,7,1,0,0.00
2013-10-17,70,54,47,58,51,46,98,91,65,30.11,29.97,6,1,0,0.00
2013-10-18,76,54,45,62,50,44,98,88,59,30.03,29.89,0,0,0,0.00
2013-10-19,71,52,42,60,49,41,98,90,65,30.04,29.96,0,0,0,0.00
2013-10-20,65,55,47,58,52,47,98,91,77,30.02,29.91,0,0,0,0.00
2013-10-21,68,52,44,58,50,44,98,93,71,29.97,29.84,0,0,0,0.00
2013-10-22,56,51,49,54,51,49,98,97,91,29.98,29.91,0,0,0,0.00
2013-10-23,57,51,48,54,50,47,98,97,89,29.97,29.89,0,0,0,0.01
2013-10-24,54,51,48,54,50,47,98,98,98,30.04,29.90,0,0,0,0.02
2013-10-25,55,52,50,54,51,50,98,97,92,30.17,30.03,0,0,0,0.00
2013-10-26,65,53,47,57,51,46,98,92,74,30.16,30.06,0,0,0,0.01
2013-10-27,56,51,47,55,50,47,98,97,86,30.09,29.73,6,1,0,0.07
2013-10-28,63,50,39,51,46,39,98,89,56,29.76,29.63,6,1,0,0.00
2013-10-29,61,44,36,50,41,35,98,90,66,30.00,29.76,6,1,0,0.00
2013-10-30,61,44,32,49,40,31,98,87,50,30.14,29.97,7,1,0,0.00
2013-10-31,64,53,43,60,51,43,98,93,64,30.18,30.10,0,0,0,0.00
2013-11-1,69,55,47,61,53,47,98,93,67,30.13,29.87,0,0,0,0.00
2013-11-2,57,51,42,54,49,42,98,95,79,30.12,29.79,14,2,0,0.69
2013-11-3,55,46,40,52,44,39,98,95,73,30.16,30.08,4,0,0,0.21
2013-11-4,53,47,40,52,46,40,98,98,96,30.15,30.07,2,0,0,0.25
2013-11-5,59,54,50,58,53,49,98,98,98,30.18,30.05,4,0,0,0.58
2013-11-6,62,56,53,62,55,53,98,98,98,30.19,30.05,0,0,0,0.00
2013-11-7,57,52,47,56,51,46,98,98,98,30.13,29.94,14,1,0,0.88
2013-11-8,60,49,39,58,48,39,98,97,85,30.14,29.97,6,1,0,0.00
2013-11-9,61,48,38,59,46,38,98,95,68,29.99,29.89,3,0,0,0.00
2013-11-10,62,49,41,61,48,40,98,98,88,29.98,29.90,7,0,0,0.00
2013-11-11,63,53,47,62,52,46,98,98,90,29.98,29.87,3,0,0,0.00
2013-11-12,64,56,53,64,56,52,98,98,98,30.33,29.95,5,0,0,0.30
2013-11-13,62,51,43,61,51,43,98,98,96,30.35,30.18,7,1,0,0.00
2013-11-14,54,47,41,53,47,40,98,98,98,30.19,30.01,3,0,0,0.07
2013-11-15,54,48,44,53,47,43,98,98,98,30.03,29.71,4,1,0,0.01
2013-11-16,56,50,42,55,49,42,98,97,85,29.88,29.64,8,1,0,0.38
2013-11-17,59,50,44,57,49,43,98,97,75,29.99,29.88,5,1,0,0.12
2013-11-18,55,50,42,55,50,41,98,98,98,29.93,29.70,3,0,0,0.88
2013-11-19,56,50,44,56,50,44,98,98,98,29.84,29.70,6,2,0,1.09
2013-11-20,50,40,30,50,39,30,98,98,98,30.17,29.89,5,1,0,0.00
2013-11-21,55,36,26,40,31,25,98,84,38,30.36,30.17,4,1,0,0.02
2013-11-22,65,38,23,55,33,22,98,88,26,30.35,30.13,4,0,0,0.00
2013-11-23,73,46,29,52,36,27,98,77,18,30.12,29.90,5,1,0,0.00
2013-11-24,64,42,30,54,38,29,98,91,47,30.16,29.96,4,1,0,0.00
2013-11-25,59,40,28,58,38,28,98,96,48,30.26,30.16,5,1,0,0.01
2013-11-26,57,42,32,57,41,31,98,98,97,30.17,29.92,3,0,0,0.01
2013-11-27,60,43,32,58,42,32,98,96,67,29.92,29.79,3,0,0,0.00
2013-11-28,64,44,32,60,43,32,98,96,76,30.08,29.85,6,0,0,0.00
2013-11-29,56,43,33,55,42,32,98,98,98,30.26,30.08,4,0,0,0.02
2013-11-30,55,46,40,55,45,39,98,98,98,30.33,30.22,4,1,0,0.00
2013-12-1,56,52,48,55,51,47,98,98,98,30.30,30.09,8,2,0,0.14
2013-12-2,54,46,36,53,46,36,98,98,98,30.08,29.95,12,3,0,1.20
2013-12-3,47,36,29,46,36,28,98,98,98,30.10,29.98,5,1,0,0.23
2013-12-4,42,30,22,38,28,22,98,94,55,30.21,30.11,6,1,0,0.01
2013-12-5,42,28,18,41,28,17,98,98,89,30.20,30.04,4,0,0,0.00
2013-12-6,44,36,31,44,35,30,98,98,98,30.03,29.74,12,1,0,0.75
2013-12-7,35,28,20,32,26,20,98,95,66,30.26,29.92,7,2,0,0.00
2013-12-8,41,26,16,36,22,16,98,89,39,30.49,30.27,4,1,0,0.00
2013-12-9,45,28,18,37,26,18,98,92,63,30.49,30.39,5,1,0,0.00
2013-12-10,45,30,22,44,30,21,98,98,88,30.43,30.23,3,0,0,0.00
2013-12-11,56,36,25,51,34,25,98,95,65,30.23,30.08,2,0,0,0.00
2013-12-12,45,36,26,44,35,25,98,98,98,30.16,30.06,2,0,0,0.69
2013-12-13,56,45,41,55,45,41,98,98,98,30.32,30.16,3,0,0,0.03
2013-12-14,49,42,35,48,41,34,98,98,98,30.38,30.29,3,0,0,0.00
2013-12-15,55,42,34,55,41,34,98,98,98,30.39,30.27,4,0,0,0.00
2013-12-16,56,41,34,56,40,33,98,98,98,30.32,30.06,3,0,0,0.01
2013-12-17,54,40,30,54,39,29,98,98,98,30.14,30.04,4,1,0,0.01
2013-12-18,47,42,37,47,41,36,98,98,98,30.08,29.94,8,1,0,0.02
2013-12-19,46,35,26,44,33,26,98,95,73,30.19,30.04,6,1,0,0.00
2013-12-20,47,39,30,46,38,29,98,98,98,30.15,29.94,3,0,0,0.81
2013-12-21,54,49,46,53,48,45,98,98,98,30.20,29.98,4,0,0,0.28
2013-12-22,58,48,45,57,48,44,98,98,98,30.30,30.18,3,0,0,0.00
2013-12-23,51,48,43,51,47,42,98,98,98,30.41,30.27,5,0,0,0.09
2013-12-24,56,44,33,56,44,33,98,98,98,30.44,30.27,6,1,0,0.01
2013-12-25,56,39,31,55,39,30,98,98,98,30.31,30.18,3,0,0,0.01
2013-12-26,60,40,30,59,40,30,98,97,76,30.22,30.06,3,0,0,0.01
2013-12-27,51,40,32,51,39,32,98,98,98,30.25,30.07,7,1,0,0.00
2013-12-28,54,40,31,53,39,30,98,98,98,30.36,30.22,5,1,0,0.01
2013-12-29,55,37,27,53,36,27,98,98,91,30.29,30.08,4,0,0,0.01
2013-12-30,50,38,32,50,38,32,98,98,98,30.15,30.07,2,0,0,0.00
2013-12-31,56,41,33,55,41,33,98,98,98,30.23,30.15,4,0,0,0.00
2014-1-1,55,40,30,54,39,29,98,98,98,30.21,30.09,3,0,0,0.00
2014-1-2,56,42,33,55,42,33,98,98,98,30.13,30.03,3,0,0,0.01